Theta_e
290 291 290 289 288 289 289 290 287 290 292 296 300 302 303 305 306 308 322 322 325 327 330 331 334 335 334 334 334 335 333 333 334 336 336 335 334 334 333 333 332 333 333 333
287 290 290 288 290 290 290 291 291 292 291 299 302 302 302 303 305 307 309 322 325 328 329 329 333 332 332 330 329 330 330 331 333 333 333 334 334 334 333 333 334 333 333 332
284 289 289 285 289 290 291 293 293 289 294 299 299 300 301 304 306 307 308 323 325 330 329 329 332 332 328 328 330 331 331 331 332 332 331 332 331 331 331 334 334 334 334 332
285 287 278 289 294 295 293 294 296 296 297 299 299 302 303 305 307 308 310 325 326 330 332 332 333 331 329 330 330 330 330 330 331 329 329 329 329 330 333 333 335 335 334 334
283 283 287 290 293 292 293 293 299 298 300 302 303 302 301 306 309 310 314 328 333 333 334 332 332 328 329 329 330 329 328 330 329 329 328 329 328 331 334 334 334 335 333 334
285 280 278 291 297 300 298 289 301 302 302 302 302 295 299 309 319 320 326 332 331 333 334 334 332 330 329 329 329 327 328 329 330 329 327 328 330 331 334 334 333 331 333 335
283 282 285 294 296 299 286 293 304 305 305 303 301 302 307 311 322 326 329 332 334 334 333 333 331 330 329 330 327 330 331 331 330 331 330 331 332 334 332 332 332 333 332 334
285 282 281 294 292 289 298 304 304 305 306 305 308 308 309 312 317 325 329 331 334 332 332 334 331 329 328 329 331 330 330 330 331 332 331 331 332 333 332 333 332 332 332 331
285 286 293 293 289 294 299 301 303 303 305 306 312 311 313 314 322 326 329 331 334 331 332 332 330 329 329 331 330 331 330 331 332 332 331 333 334 334 334 335 331 331 330 327
287 291 289 293 299 298 297 300 300 300 302 312 314 316 318 321 324 327 330 332 332 330 328 327 328 330 331 332 330 331 330 331 333 332 331 333 333 333 335 335 331 330 328 327
292 295 295 296 298 300 300 301 301 307 311 314 316 317 319 322 326 328 331 332 330 327 325 325 328 329 331 332 332 331 331 332 333 331 332 333 335 331 335 335 327 332 331 329
290 297 294 296 299 301 300 301 302 303 307 312 315 315 318 320 326 328 330 332 331 329 325 325 327 328 330 331 332 332 331 330 329 331 331 330 330 329 297 299 298 300 301 316
297 300 299 299 298 298 298 301 302 302 304 310 313 315 316 317 320 317 326 325 327 331 330 327 326 327 329 330 331 332 330 331 329 326 330 328 330 330 328 315 296 295 298 297
302 300 296 298 295 298 299 301 302 302 303 306 309 312 313 313 315 318 316 316 320 324 328 331 329 327 329 330 330 331 332 312 329 328 330 328 328 329 328 329 327 327 301 301
299 302 300 300 299 298 301 301 300 299 300 301 304 306 309 308 310 312 315 315 315 317 321 322 323 322 327 329 330 330 331 329 330 329 330 326 327 329 328 328 329 329 324 309
300 300 299 299 297 298 300 299 301 297 298 299 300 302 304 305 305 308 309 311 312 311 314 318 319 321 323 329 331 331 331 313 317 331 331 330 329 325 327 327 328 330 329 327
299 296 298 298 295 296 298 300 300 297 298 298 298 299 301 301 302 303 304 305 305 305 307 311 314 320 320 325 330 328 328 330 312 331 330 330 329 328 325 325 325 327 330 326
303 301 300 298 296 297 297 299 298 298 297 300 298 299 298 297 298 299 300 304 301 303 302 305 307 317 319 319 325 331 329 328 328 327 328 329 330 331 330 327 325 324 327 322
303 301 300 298 297 297 298 298 299 300 298 298 297 297 298 298 298 298 296 296 297 295 296 301 299 310 318 311 312 329 330 329 328 328 329 319 330 331 330 330 329 328 328 327
303 302 301 299 298 298 298 299 298 299 300 298 299 297 295 296 299 298 295 291 291 292 296 298 304 309 311 312 306 327 328 327 328 330 331 330 330 332 332 316 329 331 331 330
303 303 300 299 298 298 299 299 297 296 298 299 295 295 294 294 294 295 294 290 290 293 295 295 300 305 307 306 312 316 314 314 314 316 316 319 323 325 326 328 327 328 330 332
305 304 302 300 298 298 299 300 299 298 297 298 297 297 295 295 295 291 291 290 290 289 295 297 296 292 302 298 307 307 306 304 305 305 306 307 306 306 307 308 307 308 310 312
306 305 304 301 299 299 300 300 299 297 297 296 295 294 293 292 293 293 290 290 290 289 292 292 288 289 293 306 303 302 300 299 298 298 299 300 300 301 299 299 300 300 301 301
306 306 305 303 302 300 298 299 299 298 297 297 297 298 297 293 292 292 292 289 288 289 290 290 289 287 292 298 297 296 296 295 295 296 296 293 297 297 296 296 296 296 296 296
307 307 306 305 303 301 300 300 300 300 299 298 297 297 298 298 295 294 293 292 289 293 295 287 287 288 294 294 294 294 292 292 293 294 295 294 294 294 295 295 294 295 295 295
308 307 307 307 305 303 302 302 299 300 299 298 298 298 298 298 297 296 296 295 297 293 296 297 299 298 297 296 294 294 295 295 295 294 294 295 294 294 295 295 296 296 295 296
309 302 308 307 306 305 304 302 300 299 299 299 297 298 298 297 296 296 294 297 297 297 297 297 296 295 297 297 296 297 296 295 293 297 297 298 298 297 297 297 296 295 296 297
Wind_Speed
18 21 18 17 18 16 17 18 19 19 21 20 16 15 16 17 18 16 10 2 3 6 7 12 15 15 15 14 14 13 14 13 12 11 11 11 11 11 10 9 9 8 6 5
19 19 20 22 20 19 20 20 19 23 28 22 20 18 20 18 15 14 11 4 5 9 11 13 15 15 14 14 13 13 14 13 12 11 11 11 10 10 10 9 8 8 6 5
15 15 14 17 20 21 22 21 21 23 24 21 20 18 18 16 16 13 11 8 9 12 13 13 15 15 14 14 14 13 13 12 11 11 11 11 10 10 10 8 8 7 6 5
7 7 10 13 5 8 12 14 19 24 22 22 21 19 17 16 18 16 11 10 11 12 14 12 15 15 14 14 13 13 12 10 9 10 11 10 10 11 8 8 7 6 5 5
6 10 15 19 14 15 11 14 15 21 21 20 17 16 16 16 18 19 14 9 14 14 17 16 16 15 15 14 13 12 11 10 9 10 10 11 11 10 7 7 5 6 5 4
4 6 6 6 5 5 4 16 12 17 17 14 11 12 8 7 11 9 8 11 13 16 17 16 16 15 15 13 12 10 10 10 10 11 11 11 11 9 7 7 6 5 6 6
12 7 6 5 2 5 10 4 6 10 14 9 12 10 11 10 11 5 4 13 14 17 16 16 16 15 14 12 10 7 10 11 10 10 10 9 8 6 7 7 7 6 6 6
7 6 6 7 9 12 9 6 9 11 10 11 12 13 15 15 11 6 7 13 16 16 16 16 16 15 14 12 7 11 11 12 11 10 8 8 8 7 8 7 7 7 6 6
4 3 8 14 20 25 24 18 16 13 14 16 15 13 13 11 12 6 8 12 15 16 18 16 15 14 14 10 12 12 12 12 10 9 7 7 6 7 7 7 6 7 6 6
4 6 12 13 13 6 14 18 14 15 17 17 11 8 12 6 7 6 11 14 14 17 17 16 15 15 14 12 12 11 12 10 9 7 7 5 6 5 5 6 5 6 5 6
7 9 11 11 17 16 4 3 5 9 6 5 4 2 1 4 2 5 12 14 15 15 16 17 16 15 14 13 14 12 13 9 9 6 6 6 5 5 3 5 3 2 5 6
9 13 7 9 14 18 14 13 11 10 8 6 6 7 4 5 5 8 8 8 13 15 16 17 17 14 13 13 12 13 11 10 7 8 7 6 7 7 13 11 11 11 12 7
9 9 12 14 14 15 14 12 12 10 9 6 10 7 8 10 10 12 12 10 7 5 14 16 16 14 13 13 13 13 10 10 8 5 6 5 6 7 7 6 12 13 11 11
12 12 10 14 11 13 13 10 9 9 11 10 10 11 11 12 13 13 13 11 14 9 8 9 12 10 12 13 13 12 10 5 8 6 6 7 5 7 7 8 7 7 12 10
10 7 9 10 13 11 6 6 9 11 12 13 13 12 13 15 14 14 14 12 14 11 10 10 12 7 2 9 11 11 8 8 5 6 5 6 6 5 5 7 9 9 8 6
9 12 10 13 14 12 13 11 11 12 13 12 13 15 14 15 15 15 15 12 14 10 10 10 12 9 5 2 9 8 6 10 1 5 7 6 6 6 5 6 6 8 8 9
11 12 12 15 14 14 15 12 12 11 11 14 14 12 13 13 13 13 13 11 12 14 12 12 12 10 8 7 5 8 7 8 1 5 6 6 6 5 6 6 5 6 7 11
10 10 10 11 11 12 13 14 12 13 12 12 12 13 13 12 10 9 9 9 12 16 14 13 14 12 10 8 7 1 4 7 7 7 6 5 4 5 5 5 5 6 7 9
10 11 9 10 10 12 13 13 12 12 11 12 12 13 11 11 10 11 11 12 15 12 14 15 13 11 12 15 11 4 1 4 5 5 5 5 5 5 5 5 5 5 6 10
9 9 10 11 12 11 12 12 12 12 11 12 12 12 13 12 11 11 11 16 10 8 8 15 13 11 11 14 16 10 9 7 4 2 2 5 5 4 3 3 4 4 6 5
7 8 9 10 11 11 12 12 10 12 12 12 12 13 13 12 14 13 11 13 16 14 14 13 11 8 9 9 9 10 11 11 11 11 12 12 12 13 12 12 10 10 7 3
7 7 8 9 10 11 12 11 11 11 12 13 13 12 10 11 12 14 14 12 9 15 10 9 9 13 9 8 11 12 12 13 11 10 10 10 10 11 11 12 12 12 12 12
7 8 7 7 9 9 10 11 12 12 12 12 13 12 11 10 10 9 10 13 10 11 11 11 10 10 7 11 12 13 15 15 13 11 11 11 11 10 11 12 12 11 11 11
8 8 9 7 6 7 9 9 10 12 12 12 12 11 9 8 9 8 8 8 10 13 11 9 11 10 13 12 13 13 13 13 12 11 11 12 11 10 11 11 12 10 10 11
10 9 10 9 8 7 9 8 8 8 10 11 11 11 12 10 8 7 7 7 8 9 10 8 10 11 12 11 12 12 12 11 11 11 11 10 10 10 12 10 11 10 10 9
12 8 7 7 6 6 6 5 7 5 6 8 8 7 8 9 8 8 9 9 11 11 11 11 12 12 13 13 14 13 12 11 10 11 11 11 11 11 12 9 11 12 11 9
9 7 8 6 6 6 5 6 7 7 6 7 8 8 9 9 8 8 8 10 10 11 10 11 12 13 13 13 13 13 13 13 12 12 12 12 12 12 12 12 13 11 12 12
Wind_Direction
266 277 277 276 271 261 252 261 264 264 264 257 270 312 325 316 316 332 52 97 163 138 140 139 131 131 128 125 123 125 124 124 125 129 133 138 139 142 142 150 157 157 151 135
267 260 256 265 265 260 254 250 253 260 261 268 287 295 288 289 303 319 6 155 185 151 154 143 140 136 131 127 127 128 126 125 130 135 137 140 144 145 151 148 155 141 129 119
253 243 256 264 260 253 251 247 241 246 257 266 266 270 279 290 296 304 315 163 192 166 160 156 145 135 137 134 132 133 132 135 136 142 143 146 151 155 154 154 142 145 118 115
268 268 247 249 289 286 296 268 244 247 257 264 266 271 274 273 276 289 289 181 189 176 162 159 142 145 136 144 145 139 140 136 139 151 142 146 150 148 151 140 155 128 128 96
234 227 268 282 270 245 257 270 250 245 249 254 256 266 267 266 267 271 268 213 187 166 164 159 150 148 149 151 150 145 143 136 154 138 148 149 153 149 147 148 148 148 114 99
252 254 261 16 85 39 288 266 242 248 259 266 242 236 250 249 299 276 238 177 177 166 155 155 149 156 156 151 152 146 142 150 144 143 137 146 151 162 147 157 164 148 115 87
239 246 257 350 36 329 251 36 6 2 343 269 240 252 282 317 310 292 239 168 169 156 155 155 152 159 160 161 151 146 138 136 142 140 145 146 153 146 163 185 144 136 126 95
221 247 254 15 322 228 270 331 335 326 320 297 278 267 264 266 267 273 216 161 164 154 151 154 155 165 165 158 139 130 137 142 133 137 152 142 164 169 177 172 168 160 149 134
274 344 265 276 260 252 268 287 290 301 302 287 269 256 252 252 259 256 180 168 158 152 150 153 160 166 160 149 150 145 134 132 137 151 140 136 166 170 164 176 178 181 178 134
279 237 261 291 326 3 213 249 282 282 277 269 255 255 243 224 235 220 165 167 157 148 150 153 161 166 163 151 145 164 130 134 134 147 136 156 159 166 154 173 167 190 163 135
293 334 335 345 5 5 48 239 291 283 306 334 259 142 157 190 221 165 157 161 150 148 152 151 157 166 155 168 154 158 145 143 145 141 154 144 94 48 106 89 30 241 142 142
321 23 346 10 353 6 19 15 13 360 2 14 51 65 86 99 66 115 114 157 154 148 144 151 157 164 151 165 161 151 154 160 152 151 150 148 138 123 51 45 37 31 38 36
1 18 360 19 18 357 1 11 14 22 6 55 42 64 78 82 75 74 111 108 82 125 160 154 155 160 166 160 160 160 171 143 150 160 143 147 156 142 128 81 70 47 33 38
23 16 2 26 16 3 355 352 27 45 43 45 61 66 63 76 76 83 82 79 70 71 129 155 151 154 162 162 162 163 155 143 157 162 155 146 173 158 135 146 140 132 59 46
27 61 33 0 25 20 359 37 32 42 40 41 47 64 66 64 65 70 76 85 84 67 93 103 104 93 342 158 168 159 163 165 193 149 162 114 146 173 153 134 134 123 128 101
34 44 24 23 13 10 37 33 45 41 37 38 40 49 61 66 61 64 57 63 87 77 60 64 75 61 59 223 168 158 136 58 3 158 138 178 153 159 147 140 140 143 156 138
32 31 24 20 6 18 26 43 50 51 34 44 45 40 54 61 61 60 75 77 87 73 55 43 33 36 39 20 267 170 168 143 308 185 158 192 173 161 154 165 164 154 150 141
59 57 49 34 15 16 29 40 51 51 37 53 53 53 55 49 51 57 49 68 64 64 40 32 19 4 33 20 333 247 198 153 182 195 167 174 181 182 175 173 173 168 143 133
59 71 65 51 33 25 38 39 36 56 61 49 55 61 61 69 63 53 56 46 52 44 21 20 357 13 19 3 332 93 173 182 178 177 167 109 175 193 189 201 186 176 160 134
83 74 68 64 56 37 43 48 43 42 52 61 54 58 53 43 52 65 68 64 50 49 14 26 17 25 25 21 7 28 48 68 53 42 93 178 157 169 152 42 328 195 168 158
90 81 69 72 66 51 50 53 59 55 55 59 61 60 59 52 42 42 42 49 18 22 31 29 25 14 43 35 41 56 51 47 48 42 40 34 33 36 35 33 36 28 27 40
110 91 76 68 72 71 63 65 61 62 60 61 66 68 58 59 69 63 50 54 33 18 38 39 29 13 24 37 61 61 60 59 45 40 48 54 55 54 51 51 49 43 41 40
129 113 99 78 72 73 70 66 68 70 70 72 68 63 58 53 38 42 50 39 48 37 54 43 11 10 351 63 65 65 63 59 56 47 48 51 55 59 60 54 52 45 40 43
147 139 115 111 101 88 75 65 68 73 75 70 58 57 72 69 58 54 68 70 57 53 51 45 45 40 62 65 63 60 61 63 59 54 56 56 57 55 60 63 61 49 43 40
167 148 147 145 135 115 112 105 91 82 84 79 73 69 69 64 73 81 77 69 55 68 73 52 53 55 63 62 63 70 65 55 59 66 61 61 62 60 60 61 67 62 59 48
169 172 157 162 121 134 127 133 101 95 93 90 86 80 77 82 89 84 73 64 74 76 68 54 63 73 72 75 76 67 70 80 79 74 75 77 74 70 71 68 65 67 60 55
182 165 156 164 157 150 134 111 119 117 100 92 93 94 98 93 87 85 81 82 80 78 69 71 69 64 74 75 71 73 82 69 52 69 70 67 63 65 65 64 63 54 56 48